User: anonymous
Location: Melbourne
(37.8170°S, 144.9670°E)
Time: 06:29:20
(UTC+10:00)
Language:

ERBS - Orbit

View from above orbital plane
View from above orbital plane
View from above satellite
View from above satellite

Ground track
Ground track

The orbit data is extracted from the following two-line orbital elements,

1 15354U 84108B   14208.78981220  .00004081  00000-0  15547-3 0  5399
2 15354 057.0159 322.9102 0011141 280.0869 079.8922 15.28869253635838
Epoch (UTC): 27 July 2014 18:57:19
Eccentricity: 0.0011141
inclination: 57.0159°
perigee height: 471 km
apogee height: 487 km
right ascension of ascending node: 322.9102°
argument of perigee: 280.0869°
revolutions per day: 15.28869253
mean anomaly at epoch: 79.8922°
orbit number at epoch: 63583

The dashed part of the orbit path shows where the satellite is in the earth's shadow,  

DLR